User: anonymous
Location: Frydek-Mistek
(49.6830°N, 18.3330°E)
Time: 02:38:34
(UTC+02:00)
Language:

Courier 1B Rocket - Orbit

View from above orbital plane
View from above orbital plane
View from above satellite
View from above satellite

Ground track
Ground track

The orbit data is extracted from the following two-line orbital elements,

1 00059U 60013B   14205.26762259  .00000105  00000-0  18555-4 0  9371
2 00059 028.2498 128.3802 0189421 197.9521 161.4259 13.52895279655029
Epoch (UTC): 24 July 2014 06:25:22
Eccentricity: 0.0189421
inclination: 28.2498°
perigee height: 921 km
apogee height: 1202 km
right ascension of ascending node: 128.3802°
argument of perigee: 197.9521°
revolutions per day: 13.52895279
mean anomaly at epoch: 161.4259°
orbit number at epoch: 65502

The dashed part of the orbit path shows where the satellite is in the earth's shadow,  

DLR